Regional Weather Roundup
Issued by NWS

Home | Current Version | Previous Version | Graphics & Text | Print | Product List | Glossary On
Versions: 1 2 3 4 5 6 7 8 9 10 11 12 13 14 15 16 17 18 19 20 21 22 23 24 25 26 27 28 29 30 31 32 33 34 35 36 37 38 39 40 41 42 43 44 45 46 47 48 49 50
000
ASUS45 KABQ 221610
RWRNM
WEATHER ROUNDUP FOR NEW MEXICO
NATIONAL WEATHER SERVICE ALBUQUERQUE NM
1000 AM MDT WED OCT 22 2014

NOTE: "FAIR" MEANS FEW OR NO CLOUDS BELOW 12,000 FEET AGL WITH NO
       SIGNIFICANT WEATHER OR OBSTRUCTIONS TO VISION.

      THIS PRODUCT IS RELEASED AS TWO VERSIONS.  ONE VERSION NEAR
      THE TOP OF THE HOUR CONTAINING PRELIMINARY DATA FROM ALBUQUERQUE
      AND OTHER STATIONS.  A FINAL VERSION WITH ADDITIONAL DATA IS
      ISSUED ABOUT 10 MINUTES AFTER THE HOUR.

NMZ501-503-504-510>518-221700-
NORTHWEST PLATEAU/NORTHCENTRAL MOUNTAINS

CITY           SKY/WX    TMP DP  RH WIND       PRES   REMARKS
FARMINGTON     PTSUNNY   54  43  66 VRB5      30.19R
LOS ALAMOS     SUNNY     51  45  80 E3        30.28S
SANTA FE       PTSUNNY   57  47  69 W3        30.24S
TAOS           MOSUNNY   52  43  71 NW3       30.28R
ANGEL FIRE     FAIR      50  41  71 W5        30.31S

$$
NMZ402-403-502-505>509-221700-
WESTCENTRAL MOUNTAINS/SOUTHWEST MOUNTAINS

CITY           SKY/WX    TMP DP  RH WIND       PRES   REMARKS
GALLUP         SUNNY     51  44  77 NW3       30.25R
GRANTS         SUNNY     48  45  87 CALM      30.28R
SILVER CITY    SUNNY     59  52  77 S5        30.23R

$$
NMZ407-409-411-412-221700-
SOUTHERN DESERTS

CITY           SKY/WX    TMP DP  RH WIND       PRES   REMARKS
LORDSBURG      FAIR      63  54  72 MISG      30.16S
DEMING         SUNNY     62  56  80 E8        30.17R
LAS CRUCES     SUNNY     63  55  75 E3        30.19R
HOLLOMAN AFB   SUNNY     62  55  76 NW2       30.16R
T OR C         SUNNY     62  50  64 W3        30.18S

$$
NMZ519>523-221700-
CENTRAL VALLEYS/CENTRAL HIGHLANDS

CITY           SKY/WX    TMP DP  RH WIND       PRES   REMARKS
ALBUQUERQUE    MOSUNNY   58  50  75 S5        30.22R
DOUBLE EAGLE   MOSUNNY   55  48  76 E3        30.23S
MORIARTY ARPT  FOG       48  46  95 CALM      30.25S VSB 3/4
CLINES CORNERS SUNNY     53  48  83 NW21      30.24S
BELEN          FAIR      58  50  74 N3        30.21S
SOCORRO        FAIR      60  52  76 SE5       30.20R

$$
NMZ524>526-539-540-221700-
SOUTHCENTRAL MOUNTAINS

CITY           SKY/WX    TMP DP  RH WIND       PRES   REMARKS
RUIDOSO        SUNNY     54  48  82 MISG      30.28R

$$
NMZ527>531-221700-
NORTHEAST HIGHLANDS/NORTHEAST PLAINS

CITY           SKY/WX    TMP DP  RH WIND       PRES   REMARKS
LAS VEGAS      SUNNY     56  44  64 CALM      30.22R
RATON          SUNNY     56  46  69 E3        30.17S
CLAYTON        MOSUNNY   62  50  64 SW14      30.11S

$$
NMZ532>537-221700-
EASTCENTRAL PLAINS

CITY           SKY/WX    TMP DP  RH WIND       PRES   REMARKS
TUCUMCARI      MOSUNNY   67  54  63 SW18      30.10S
CANNON AFB     CLOUDY    60  56  89 SW8       30.17R
CLOVIS AIRPORT CLOUDY    61  55  82 SW9       30.19R

$$
NMZ028-029-538-221700-
SOUTHEAST PLAINS

CITY           SKY/WX    TMP DP  RH WIND       PRES   REMARKS
ROSWELL        CLOUDY    63  60  90 S7        30.14R FOG
CARLSBAD       CLOUDY    64  58  80 S3        30.13S
HOBBS          CLOUDY    63  61  94 SE12      30.16S


$$



USA.gov is the U.S. government's official web portal to all federal, state and local government web resources and services.